[[{"header":{"parameterUnit":"m.s-1","parameterCategory":1,"la1":30.2991,"la2":30.254,"lo1":-89.0895,"lo2":-89.0444,"dy":0.0017,"dx":0.0017,"nx":28,"ny":28,"refTime":"2024-04-10T03:00:00:Z","depth":0,"parameterNumber":2,"parameterNumberName":"U-component_of_WINDS"},"data":[0,0,0,0,0,0,0,0,0,0,0,0,0,0,0,0,0,0,0,0,0,0,0,0,0,0,0,0,0,0,0,0,0,0,0,0,0,0,0,0,0,0,0,0,0,0,0,0,0,0,0,0,0,0,0,0,0,0,-8.1477,-8.1479,0,-8.1592,-8.1594,-8.1595,-8.1535,-8.1532,-8.1529,-8.1526,-8.1641,-8.1646,-8.1652,0,0,0,0,0,0,0,0,0,0,0,0,0,-8.1205,-8.121,-8.1477,-8.1479,-8.148,-8.1592,-8.1594,-8.1595,-8.1536,-8.1532,-8.1528,-8.1525,-8.1639,-8.1646,-8.1653,0,0,0,0,0,0,0,0,0,0,0,0,0,-8.1322,-8.1212,-8.1477,-8.1464,-8.1464,-8.1592,-8.1594,-8.1596,-8.1537,-8.1532,-8.1527,-8.1523,-8.1636,-8.1645,-8.1654,-8.18,0,0,-8.1681,-8.1685,0,0,0,0,0,0,0,0,-8.1315,-8.1332,-8.1465,-8.1465,-8.1465,-8.1545,-8.1539,-8.1664,-8.1538,-8.1509,-8.1526,-8.1521,-8.1612,-8.1623,-8.1654,-8.1805,-8.181,-8.1682,-8.1687,-8.1691,-8.1693,0,0,0,0,0,0,0,-8.1307,-8.1326,-8.1523,-8.1467,-8.1467,-8.1452,-8.1464,-8.1563,-8.1585,-8.1511,-8.1507,-8.1522,-8.1612,-8.1646,-8.1657,-8.1812,-8.1681,-8.1689,-8.1695,-8.1698,-8.2087,-8.2092,0,0,0,0,0,0,-8.13,-8.132,-8.1519,-8.1526,-8.1378,-8.1461,-8.1474,-8.1524,-8.1584,-8.1588,-8.1525,-8.1518,-8.1633,-8.1646,-8.166,-8.1833,-8.1691,-8.1699,-8.1704,-8.2083,-8.2089,-8.2094,0,0,0,0,0,0,-8.1294,-8.1318,-8.1514,-8.1422,-8.1446,-8.147,-8.1527,-8.1529,-8.1563,-8.1594,-8.1598,-8.1556,-8.163,-8.1648,-8.1766,-8.1836,-8.1703,-8.1711,-8.2077,-8.2084,-8.2091,-8.2181,0,0,0,0,0,0,-8.1287,-8.1317,-8.1372,-8.1424,-8.1451,-8.1618,-8.1532,-8.1534,-8.1578,-8.157,-8.1624,-8.1629,-8.1628,-8.1753,-8.1774,-8.1846,-8.1718,-8.207,-8.208,-8.2089,-8.2172,-8.2191,-8.2207,0,0,0,0,0,-8.1277,-8.1393,-8.1375,-8.14,-8.1521,-8.1622,-8.1638,-8.1635,-8.1584,-8.164,-8.1661,-8.1627,-8.1827,-8.1765,-8.1789,-8.1865,-8.2066,-8.2077,-8.2088,-8.2164,-8.2187,-8.2207,0,0,0,0,0,0,-8.1347,-8.1399,-8.138,-8.1516,-8.1566,-8.1612,-8.1682,-8.166,-8.1723,-8.1713,-8.1707,-8.1719,-8.1841,-8.1866,-8.1796,-8.2009,-8.1938,-8.1955,-8.1988,-8.201,-8.2027,-8.2017,-8.1725,0,0,0,0,0,-8.1379,-8.1457,-8.1498,-8.1614,-8.164,-8.1657,-8.1701,-8.1695,-8.1745,-8.1765,-8.1795,-8.1844,-8.1918,-8.1966,-8.2036,-8.2178,-8.2187,-8.2241,-8.2259,-8.2273,-8.2286,-8.2362,-8.2385,-8.2131,-8.2131,-8.2131,0,0,-8.1443,-8.1482,-8.1531,-8.1629,-8.1666,-8.1746,-8.1675,-8.1763,-8.1822,-8.1778,-8.189,-8.1915,-8.197,-8.21,-8.2158,-8.2123,-8.236,-8.2288,-8.2299,-8.2304,-8.2376,-8.24,-8.2421,-8.2139,-8.2138,-8.2136,0,0,-8.1601,-8.164,-8.1739,-8.1779,-8.1838,-8.1849,-8.1874,-8.1925,-8.1939,-8.2053,-8.2022,-8.2093,-8.222,-8.226,-8.2297,-8.2475,-8.2445,-8.2498,-8.2588,-8.2662,-8.2682,-8.2699,-8.2759,-8.2782,-8.2512,-8.2512,-8.2512,0,-8.1673,-8.1794,-8.1793,-8.1884,-8.1927,-8.1895,-8.1995,-8.2034,-8.2112,-8.2142,-8.2103,-8.2263,-8.2298,-8.2436,-8.2479,-8.2512,-8.2538,-8.2489,-8.2679,-8.2697,-8.2713,-8.277,-8.2794,-8.2518,-8.2517,-8.2517,-8.2516,0,-8.1879,-8.1963,-8.2037,-8.2114,-8.2167,-8.2262,-8.2275,-8.2328,-8.2319,-8.2335,-8.2451,-8.2493,-8.2569,-8.2603,-8.2595,-8.2741,-8.2717,-8.268,-8.2607,-8.2743,-8.2797,-8.2819,-8.2526,-8.2524,-8.2522,-8.2521,0,0,-8.2078,-8.2157,-8.2183,-8.2218,-8.2282,-8.2347,-8.2442,-8.2518,-8.2563,-8.262,-8.2697,-8.2808,-8.2773,-8.2816,-8.2812,-8.2878,-8.3013,-8.2832,-8.2833,-8.2861,-8.3174,-8.3198,-8.3224,-8.2996,-8.3001,-8.3004,-8.3168,0,-8.2238,-8.2402,-8.2406,-8.2557,-8.2634,-8.2607,-8.2689,-8.2737,-8.2755,-8.2823,-8.2843,-8.292,-8.2871,-8.2896,-8.2961,-8.2983,-8.3075,-8.2972,-8.3065,-8.3069,-8.3047,-8.3252,-8.3278,-8.343,-8.3189,-8.3193,-8.3195,0,-8.2444,-8.2508,-8.2667,-8.2721,-8.2753,-8.2827,-8.2898,-8.2964,-8.3019,-8.3027,-8.3077,-8.3064,-8.316,-8.309,-8.322,-8.315,-8.319,-8.3207,-8.3213,-8.3217,-8.3136,-8.3258,-8.3479,-8.35,-8.3229,-8.3226,-8.3224,0,-8.2569,-8.2696,-8.2807,-8.2838,-8.2904,-8.2957,-8.2987,-8.3037,-8.3083,-8.3146,-8.3176,-8.3249,-8.3288,-8.3345,-8.3353,-8.3301,-8.3484,-8.3414,-8.3491,-8.3491,-8.3526,-8.3523,-8.3752,-8.356,-8.356,-8.356,-8.3559,0,-8.2744,-8.2841,-8.2864,-8.2931,-8.304,-8.3045,-8.3151,-8.3177,-8.3223,-8.3295,-8.3278,-8.3345,-8.3353,-8.3424,-8.3431,-8.3537,-8.3556,-8.3564,-8.3564,-8.3563,-8.3561,-8.3584,-8.3572,-8.3566,-8.3564,-8.3563,-8.3562,0,-8.2899,-8.2919,-8.3037,-8.3092,-8.3108,-8.3185,-8.3231,-8.3296,-8.3315,-8.3406,-8.3427,-8.3456,-8.3538,-8.3553,-8.3649,-8.3654,-8.378,-8.3771,-8.3761,-8.3758,-8.3833,-8.3824,-8.4081,-8.4114,-8.3905,-8.3907,-8.3909,0,-8.3006,-8.308,-8.3144,-8.3191,-8.3224,-8.3301,-8.3349,-8.3358,-8.3408,-8.3477,-8.3533,-8.3614,-8.3678,-8.381,-8.3839,-8.3913,-8.3903,-8.3988,-8.3913,-8.391,-8.3899,-8.3893,-8.3899,-8.4,-8.4003,-8.4004,-8.4006,0,-8.3194,-8.3201,-8.327,-8.3345,-8.3403,-8.3461,-8.3517,-8.3557,-8.3573,-8.3631,-8.3715,-8.3765,-8.3865,-8.3944,-8.4018,-8.4048,-8.4029,-8.4031,-8.4051,-8.4048,-8.4038,-8.4041,-8.3795,-8.4023,-8.4021,-8.402,-8.4019,-8.4018,-8.3325,-8.339,-8.3445,-8.3523,-8.3567,-8.362,-8.3683,-8.3711,-8.3782,-8.3863,-8.3865,-8.3957,-8.4011,-8.4109,-8.4144,-8.4215,-8.4188,-8.4219,-8.4226,-8.4233,-8.4238,-8.4031,-8.423,-8.4229,-8.4229,-8.4228,-8.4228,0,-8.3508,-8.3543,-8.3616,-8.3695,-8.3757,-8.3738,-8.38,-8.3852,-8.3933,-8.3986,-8.405,-8.4147,-8.4225,-8.4262,-8.4338,-8.4388,-8.4381,-8.4407,-8.4401,-8.4408,-8.426,-8.4232,-8.4411,-8.4411,-8.4411,-8.4411,-8.4411,-8.4411,-8.361,-8.3718,-8.3732,-8.3861,-8.3895,-8.3985,-8.4022,-8.407,-8.4112,-8.4221,-8.4286,-8.4311,-8.4357,-8.4438,-8.4508,-8.4517,-8.4544,-8.4573,-8.4578,-8.4437,-8.4418,-8.44,-8.4374,-8.458,-8.4581,-8.4719,-8.472,-8.4721]},{"header":{"parameterUnit":"m.s-1","parameterCategory":1,"la1":30.2991,"la2":30.254,"lo1":-89.0895,"lo2":-89.0444,"dy":0.0017,"dx":0.0017,"nx":28,"ny":28,"refTime":"2024-04-10T03:00:00:Z","depth":0,"parameterNumber":3,"parameterNumberName":"V-component_of_WINDS"},"data":[0,0,0,0,0,0,0,0,0,0,0,0,0,0,0,0,0,0,0,0,0,0,0,0,0,0,0,0,0,0,0,0,0,0,0,0,0,0,0,0,0,0,0,0,0,0,0,0,0,0,0,0,0,0,0,0,0,0,3.769,3.7691,0,3.7725,3.7726,3.7726,3.7739,3.7739,3.7739,3.7739,3.7771,3.7772,3.7772,0,0,0,0,0,0,0,0,0,0,0,0,0,3.7634,3.7635,3.769,3.7691,3.7691,3.7725,3.7726,3.7726,3.7739,3.7739,3.7739,3.7739,3.777,3.7771,3.7773,0,0,0,0,0,0,0,0,0,0,0,0,0,3.7662,3.7635,3.769,3.7702,3.7703,3.7725,3.7726,3.7726,3.7739,3.7739,3.7739,3.7738,3.777,3.7771,3.7773,3.7784,0,0,3.7777,3.7778,0,0,0,0,0,0,0,0,3.7661,3.7665,3.77,3.7701,3.7703,3.7728,3.7717,3.7746,3.7739,3.7725,3.7739,3.7738,3.7756,3.7759,3.7765,3.7786,3.7787,3.7777,3.7778,3.7779,3.7779,0,0,0,0,0,0,0,3.7659,3.7663,3.7704,3.77,3.7702,3.7705,3.7709,3.7723,3.7741,3.7726,3.7727,3.7732,3.7757,3.7764,3.7766,3.7788,3.7777,3.7778,3.7779,3.778,3.7822,3.7822,0,0,0,0,0,0,3.7655,3.7661,3.7703,3.7705,3.7681,3.7706,3.771,3.772,3.7741,3.7744,3.7732,3.7732,3.7762,3.7765,3.7767,3.7784,3.7779,3.778,3.7781,3.7822,3.7822,3.7822,0,0,0,0,0,0,3.7654,3.7659,3.7702,3.7684,3.7689,3.7707,3.7718,3.772,3.7728,3.7745,3.7748,3.7736,3.7762,3.7765,3.7781,3.7785,3.7781,3.7782,3.7822,3.7822,3.7822,3.7816,0,0,0,0,0,0,3.7652,3.7658,3.7663,3.7684,3.769,3.7715,3.7718,3.7721,3.773,3.7731,3.775,3.7752,3.7762,3.7779,3.7782,3.7787,3.7783,3.7821,3.7822,3.7822,3.7816,3.7816,3.7816,0,0,0,0,0,3.765,3.7659,3.7663,3.7668,3.7697,3.7715,3.7719,3.773,3.7731,3.7736,3.7747,3.7752,3.7785,3.778,3.7784,3.779,3.7821,3.7822,3.7822,3.7816,3.7816,3.7816,0,0,0,0,0,0,3.7636,3.7661,3.7667,3.7682,3.7697,3.7717,3.7723,3.773,3.7743,3.7743,3.7757,3.7761,3.7775,3.7784,3.7779,3.7803,3.7803,3.7805,3.7797,3.7797,3.7798,3.7795,3.7784,0,0,0,0,0,3.7635,3.7648,3.767,3.7681,3.7688,3.7705,3.7713,3.7721,3.7736,3.7742,3.7755,3.7768,3.7782,3.779,3.7803,3.7818,3.7822,3.7824,3.7824,3.7824,3.7825,3.7835,3.7836,3.7825,3.7825,3.7824,0,0,3.7632,3.7648,3.7655,3.7679,3.7691,3.7704,3.771,3.7723,3.7733,3.7744,3.776,3.777,3.7786,3.7801,3.7809,3.7809,3.7829,3.7825,3.7825,3.7826,3.7835,3.7836,3.7837,3.7825,3.7825,3.7825,0,0,3.7634,3.7647,3.7659,3.7672,3.7691,3.7703,3.7706,3.7726,3.7734,3.775,3.7759,3.7771,3.7794,3.7806,3.7814,3.7825,3.783,3.7829,3.7829,3.7839,3.784,3.7841,3.7845,3.7846,3.783,3.783,3.783,0,3.7627,3.7649,3.7664,3.7678,3.7688,3.7701,3.7714,3.7725,3.7747,3.7754,3.7754,3.7785,3.7796,3.7816,3.7819,3.7825,3.7829,3.7826,3.7839,3.784,3.7841,3.7845,3.7846,3.7829,3.7829,3.7829,3.7829,0,3.7641,3.7656,3.7663,3.7686,3.7698,3.7711,3.7728,3.7738,3.7746,3.7757,3.7775,3.779,3.7807,3.7813,3.782,3.7834,3.7834,3.7836,3.7836,3.7841,3.7845,3.7847,3.7829,3.7829,3.7829,3.7829,0,0,3.7631,3.7666,3.7668,3.768,3.7704,3.7715,3.773,3.7749,3.7757,3.7773,3.7785,3.7806,3.7809,3.7819,3.7828,3.7837,3.7845,3.7839,3.7839,3.7839,3.7862,3.786,3.7861,3.7849,3.785,3.785,3.7861,0,3.7637,3.7664,3.7679,3.77,3.7715,3.7729,3.7741,3.7757,3.7769,3.7783,3.7795,3.781,3.7813,3.782,3.7829,3.7842,3.785,3.7842,3.786,3.7861,3.7855,3.7864,3.7861,3.787,3.7863,3.7863,3.7863,0,3.7646,3.7664,3.7686,3.7711,3.7718,3.7729,3.7749,3.7762,3.7781,3.7789,3.7802,3.7811,3.7827,3.7827,3.7849,3.7844,3.7853,3.786,3.7861,3.7863,3.7862,3.7865,3.7874,3.7875,3.7866,3.7866,3.7865,0,3.7638,3.7667,3.7685,3.7695,3.7724,3.7732,3.7744,3.7763,3.7774,3.7791,3.7799,3.7817,3.7827,3.784,3.7855,3.7853,3.7876,3.7877,3.7883,3.7882,3.7886,3.7885,3.7896,3.7892,3.7892,3.7892,3.7892,0,3.7642,3.7655,3.7683,3.7693,3.771,3.7728,3.7743,3.7756,3.7773,3.7787,3.7799,3.7812,3.783,3.7845,3.7856,3.7874,3.7878,3.7885,3.7887,3.7883,3.7882,3.7888,3.7888,3.7893,3.7892,3.7892,3.7892,0,3.7635,3.7654,3.7674,3.7701,3.7709,3.7719,3.7742,3.7753,3.7767,3.7784,3.7789,3.781,3.7829,3.7845,3.7868,3.7876,3.7894,3.7897,3.7888,3.7889,3.7895,3.7894,3.7909,3.7912,3.7907,3.7907,3.7907,0,3.7636,3.7647,3.7676,3.7687,3.77,3.7717,3.7729,3.7748,3.776,3.7784,3.7793,3.7813,3.7829,3.7858,3.7875,3.7894,3.7897,3.7902,3.79,3.7896,3.7898,3.7897,3.7898,3.7901,3.7901,3.7901,3.7901,0,3.7636,3.7645,3.7663,3.7686,3.7701,3.7718,3.7736,3.7745,3.7767,3.778,3.78,3.7813,3.7839,3.7859,3.788,3.7892,3.79,3.7902,3.7904,3.79,3.7894,3.7898,3.7888,3.7901,3.7901,3.7901,3.7901,3.7901,3.7633,3.7644,3.7667,3.7688,3.7704,3.7721,3.7734,3.7751,3.7768,3.7792,3.7802,3.7822,3.7843,3.7872,3.7885,3.7901,3.7902,3.7905,3.7906,3.7907,3.7906,3.7892,3.7905,3.7905,3.7905,3.7905,3.7905,0,3.7634,3.765,3.7669,3.7696,3.7712,3.7721,3.7742,3.7755,3.7773,3.7792,3.781,3.7833,3.7853,3.7873,3.7894,3.7903,3.7907,3.7908,3.7907,3.791,3.7904,3.79,3.7904,3.7904,3.7904,3.7904,3.7904,3.7904,3.7636,3.7657,3.767,3.7698,3.7715,3.7736,3.7748,3.7764,3.778,3.7806,3.7824,3.7837,3.7857,3.788,3.7898,3.7904,3.791,3.791,3.7916,3.791,3.791,3.791,3.7906,3.7911,3.7911,3.7921,3.7921,3.7921]}]]